Location: Unspecified
(0.0000°N, 0.0000°E)
Time: 11:58:11
(UTC+00:00)

Hubble Space Telescope - Visible Passes

Search period start: 30 January 2023 00:00
Search period end: 09 February 2023 00:00
Orbit: 529 x 532 km, 28.5° (Epoch: 29 January)

Date Brightness Start Highest point End Pass type
(mag) Time Alt. Az. Time Alt. Az. Time Alt. Az.
01 Feb 3.6 20:33:01 10° SW 20:33:51 15° SW 20:33:51 15° SW visible
02 Feb 3.0 18:40:56 10° S 18:42:50 13° SSE 18:44:45 10° SE visible
02 Feb 2.9 20:19:50 10° SW 20:21:36 25° SW 20:21:36 25° SW visible
03 Feb 2.0 20:06:43 10° WSW 20:09:24 39° WSW 20:09:24 39° WSW visible
04 Feb 1.3 19:53:40 10° WSW 19:57:13 52° WNW 19:57:13 52° WNW visible
05 Feb 1.5 19:40:42 10° W 19:44:32 40° NNW 19:45:05 37° N visible
06 Feb 2.2 19:27:49 10° W 19:31:25 29° NNW 19:32:57 23° N visible
07 Feb 1.5 05:39:55 10° NW 05:43:50 45° NNE 05:47:46 10° ESE visible
07 Feb 2.6 19:15:03 10° W 19:18:17 22° NNW 19:20:48 13° NNE visible
08 Feb 1.0 05:27:15 14° NW 05:30:42 64° NNE 05:34:44 10° ESE visible
08 Feb 3.0 19:02:26 10° WNW 19:05:09 17° NNW 19:07:53 10° NNE visible
